Voltar ao catálogo

FENGYUN 1C DEB

AtivoPO
NORAD 31209·DEBRIS·🇨🇳 China

Lançado May 10, 1999 de Taiyuan Satellite Launch Center

Loading…

Próximas Passagens (próximas 24 horas)

TLE

EnvelhecendoSource: Space-Track

Época: Sep 7, 2026, 00:58 UTC

1 31209U 99025BKP 26250.04089794  .00004238  00000-0  11567-2 0  9995
2 31209  98.8864   2.7239 0020751 258.2369 101.6494 14.47749661686850

Acompanhe FENGYUN 1C DEB em tempo real com AllMySat

Download on the App Store